STARLINK-4212 (52846 NORAD) Tracking and Keplerian Element Data

This shows tracking and keplerian element data for the satellite.

Feedback or suggestion? Click here.




ElementValue
Catalog52846
NameSTARLINK-4212
Epoch Orbit130
Epoch Day270.00001157
Epoch Year2022
RAAN289.0823
Inclination53.2175
Eccentricity0.0001873
Argument of Perigee39.9016
Mean Anonmoly119.7377
Mean Motion15.08808633
Decay Rate0.00035943
L11 52846U 22062S 22270.00001157 .00035943 00000+0 22669-2 0 9994
L22 52846 53.2175 289.0823 0001873 39.9016 119.7377 15.08808633 1300

Live tracking and technical data element details for STARLINK-4212 (NORAD 52846). STARLINK-4212 can be tracked NOW for your location showing map with azimuth and elevation plus other details from your city location.

Track the satellite on the map from your city or location and see movement details for azimuth, elevation, latitude, longitude, range, height, and movement on the map or in text.







IsCatalogInMostPopularTable: catalog: 52846, numindb: 6
Update: records affected: 1



GetName: 52846 STARLINK-4212

Hit Count: updated at: Thu, 06 Oct 2022 04:14:15 GMT